[[[{"header":{"parameterUnit":"kt","parameterCategory":2,"dx":1,"dy":1,"la1":30.253999710083008,"la2":30.299108505249023,"lo1":-89.0895004272461,"lo2":-89.04439544677734,"nx":28,"ny":28,"refTime":"2022-10-18T21:00:00:Z","depth":0,"parameterNumber":1,"parameterNumberName":"U-component_of_WINDS"},"data":[0.8982,0.8993,0.8996,0.9011,0.9015,0.9027,0.9031,0.9038,0.9044,0.9059,0.9068,0.9072,0.908,0.9092,0.9103,0.9105,0.9109,0.9112,0.9114,0.9097,0.9095,0.9093,0.909,0.9113,0.9113,0.9132,0.9132,0.9132,0.8972,0.8977,0.8985,0.8994,0.9002,0.9,0.9008,0.9015,0.9025,0.9032,0.9041,0.9054,0.9065,0.9071,0.9083,0.909,0.909,0.9093,0.9092,0.9094,0.9076,0.9072,0.9093,0.9093,0.9093,0.9093,0.9093,0.9093,0.8955,0.8962,0.8968,0.8977,0.8982,0.8989,0.8996,0.9,0.9009,0.9019,0.902,0.9032,0.904,0.9054,0.906,0.907,0.9067,0.9071,0.9072,0.9073,0.9074,0.905,0.9072,0.9072,0.9072,0.9072,0.9072,0,0.8943,0.8945,0.8952,0.896,0.8966,0.8973,0.898,0.8984,0.8987,0.8994,0.9005,0.9011,0.9024,0.9035,0.9045,0.905,0.9049,0.9049,0.9052,0.9052,0.9051,0.9053,0.9023,0.9048,0.9048,0.9048,0.9048,0.9048,0.8927,0.8934,0.8941,0.8946,0.8949,0.8957,0.8963,0.8965,0.897,0.8979,0.8985,0.8995,0.9003,0.902,0.9025,0.9035,0.9035,0.9045,0.9036,0.9037,0.9036,0.9036,0.9037,0.9046,0.9046,0.9046,0.9047,0,0.8918,0.892,0.8931,0.8937,0.8939,0.8946,0.8952,0.8959,0.8962,0.8972,0.8974,0.8979,0.8989,0.8992,0.9004,0.9006,0.9021,0.902,0.9019,0.9019,0.9028,0.9028,0.9057,0.9061,0.9036,0.9036,0.9036,0,0.8905,0.8914,0.8916,0.8923,0.8933,0.8934,0.8945,0.8948,0.8953,0.8961,0.896,0.8967,0.897,0.8978,0.898,0.8993,0.8995,0.8997,0.8998,0.8997,0.8997,0.9001,0.9,0.8997,0.8997,0.8997,0.8997,0,0.8891,0.8901,0.8911,0.8914,0.8921,0.8926,0.8929,0.8935,0.894,0.8947,0.895,0.8958,0.8963,0.897,0.8972,0.8967,0.8988,0.898,0.899,0.899,0.8994,0.8993,0.9018,0.8997,0.8997,0.8997,0.8997,0,0.888,0.8885,0.8899,0.8905,0.8908,0.8914,0.8922,0.8928,0.8934,0.8935,0.894,0.894,0.895,0.8943,0.8958,0.895,0.8955,0.8958,0.8959,0.896,0.8952,0.8966,0.8989,0.8992,0.8961,0.8961,0.8961,0,0.8864,0.8877,0.8877,0.889,0.8897,0.8894,0.8902,0.8907,0.8909,0.8915,0.8918,0.8925,0.8921,0.8923,0.893,0.8933,0.8943,0.8932,0.8944,0.8944,0.8943,0.8964,0.8966,0.8984,0.8957,0.8957,0.8958,0,0.8851,0.8857,0.8859,0.8862,0.8867,0.8872,0.888,0.8887,0.8892,0.8896,0.8904,0.8914,0.8911,0.8915,0.8915,0.8922,0.8937,0.8918,0.8918,0.8922,0.8955,0.8958,0.8961,0.8935,0.8936,0.8936,0.8955,0,0.8836,0.8842,0.8847,0.8853,0.8857,0.8864,0.8865,0.887,0.8869,0.887,0.8881,0.8884,0.8891,0.8894,0.8893,0.8908,0.8906,0.8902,0.8895,0.8909,0.8915,0.8918,0.8886,0.8886,0.8886,0.8886,0,0,0.882,0.8828,0.8826,0.8833,0.8837,0.8833,0.8841,0.8844,0.885,0.8852,0.8849,0.8863,0.8865,0.8878,0.8883,0.8885,0.8888,0.8883,0.8902,0.8904,0.8906,0.8913,0.8915,0.8885,0.8885,0.8885,0.8885,0,0.8814,0.8815,0.8822,0.8825,0.8829,0.8829,0.8831,0.8834,0.8835,0.8844,0.8841,0.8848,0.8858,0.8862,0.8865,0.8881,0.8879,0.8883,0.8892,0.8901,0.8903,0.8905,0.8911,0.8914,0.8885,0.8885,0.8885,0,0.8802,0.8804,0.8806,0.8812,0.8814,0.882,0.8813,0.882,0.8824,0.882,0.8829,0.8831,0.8835,0.8847,0.8852,0.8848,0.8871,0.8863,0.8864,0.8865,0.8873,0.8875,0.8877,0.8848,0.8848,0.8848,0,0,0.8797,0.8802,0.8803,0.8811,0.8812,0.8812,0.8815,0.8814,0.8817,0.8819,0.882,0.8824,0.8831,0.8835,0.884,0.8852,0.8854,0.8858,0.886,0.8862,0.8863,0.8871,0.8874,0.8848,0.8848,0.8848,0,0,0.8795,0.8796,0.8794,0.8802,0.8806,0.8808,0.8813,0.881,0.8815,0.8814,0.8813,0.8813,0.8824,0.8825,0.8819,0.8838,0.8831,0.8833,0.8836,0.8838,0.884,0.884,0.8812,0,0,0,0,0,0.8788,0.8796,0.8794,0.8795,0.8802,0.8809,0.881,0.8808,0.8804,0.8808,0.8809,0.8806,0.8822,0.8816,0.8818,0.8825,0.8841,0.8842,0.8843,0.8851,0.8853,0.8855,0,0,0,0,0,0,0.8789,0.879,0.8794,0.8796,0.8797,0.8808,0.88,0.88,0.8803,0.8802,0.8806,0.8806,0.8805,0.8815,0.8817,0.8824,0.8811,0.8842,0.8843,0.8843,0.8852,0.8854,0.8855,0,0,0,0,0,0.8789,0.879,0.8801,0.8796,0.8797,0.8797,0.88,0.88,0.8802,0.8803,0.8803,0.8801,0.8805,0.8806,0.8816,0.8823,0.881,0.8811,0.8842,0.8843,0.8844,0.8853,0,0,0,0,0,0,0.8789,0.8791,0.8801,0.8801,0.8792,0.8797,0.8797,0.88,0.8803,0.8803,0.8798,0.8798,0.8805,0.8806,0.8807,0.8823,0.8809,0.881,0.881,0.8843,0.8843,0.8844,0,0,0,0,0,0,0.879,0.8791,0.8801,0.8797,0.8797,0.8796,0.8796,0.8804,0.8803,0.8798,0.8797,0.8798,0.8804,0.8806,0.8807,0.8819,0.8809,0.8809,0.881,0.881,0.8843,0.8844,0,0,0,0,0,0,0.879,0.8791,0.8797,0.8796,0.8796,0.88,0.8803,0.881,0.8799,0.8798,0.8798,0.8797,0.8804,0.8805,0.8807,0.8819,0.8819,0.8809,0.8809,0.8809,0.8809,0,0,0,0,0,0,0,0.8791,0.8785,0.8799,0.8796,0.8796,0.8805,0.8805,0.8805,0.8799,0.8798,0.8798,0.8797,0.8805,0.8806,0.8806,0.8818,0,0,0.8808,0.8809,0,0,0,0,0,0,0,0,0.8785,0.8785,0.8799,0.8799,0.8799,0.8805,0.8805,0.8805,0.8798,0.8798,0.8798,0.8798,0.8805,0.8806,0.8806,0,0,0,0,0,0,0,0,0,0,0,0,0,0,0,0.8799,0.8799,0,0.8805,0.8805,0.8805,0.8798,0.8798,0.8798,0.8798,0.8805,0.8806,0.8806,0,0,0,0,0,0,0,0,0,0,0,0,0,0,0,0,0,0,0,0,0,0,0,0,0,0,0,0,0,0,0,0,0,0,0,0,0,0,0,0,0,0,0,0,0,0,0,0,0,0,0,0,0,0,0,0,0,0,0,0,0,0,0,0,0,0,0,0,0]}],[{"header":{"parameterUnit":"kt","parameterCategory":2,"dx":1,"dy":1,"la1":30.253999710083008,"la2":30.299108505249023,"lo1":-89.0895004272461,"lo2":-89.04439544677734,"nx":28,"ny":28,"refTime":"2022-10-18T21:00:00:Z","depth":0,"parameterNumber":2,"parameterNumberName":"V-component_of_WINDS"},"data":[-6.9056,-6.9146,-6.9184,-6.9304,-6.9358,-6.9446,-6.9489,-6.9549,-6.9606,-6.9714,-6.9783,-6.9828,-6.9898,-6.9987,-7.0062,-7.0081,-7.011,-7.0116,-7.0136,-7.0079,-7.0073,-7.0068,-7.0051,-7.0121,-7.0121,-7.0191,-7.0192,-7.0192,-6.9014,-6.9069,-6.9143,-6.9241,-6.9305,-6.9323,-6.9401,-6.9453,-6.953,-6.96,-6.9669,-6.9766,-6.9847,-6.9916,-6.9999,-7.0041,-7.0054,-7.0061,-7.0059,-7.007,-7.001,-6.9991,-7.005,-7.005,-7.005,-7.005,-7.005,-7.005,-6.8949,-6.9001,-6.9083,-6.9163,-6.9222,-6.9286,-6.9342,-6.9397,-6.9469,-6.9562,-6.959,-6.9678,-6.9753,-6.987,-6.9918,-6.9986,-6.9984,-7.0003,-7.0008,-7.0013,-7.0014,-6.9912,-7.0001,-7.0001,-7.0001,-7.0001,-7.0001,0,-6.8914,-6.8942,-6.9015,-6.91,-6.916,-6.9229,-6.9297,-6.9332,-6.9402,-6.9457,-6.9541,-6.9595,-6.9701,-6.9783,-6.9868,-6.9914,-6.9936,-6.9941,-6.9955,-6.9944,-6.9924,-6.9937,-6.984,-6.9938,-6.9938,-6.9938,-6.9937,-6.9937,-6.8853,-6.8907,-6.9009,-6.9056,-6.9102,-6.9175,-6.9226,-6.9283,-6.9334,-6.9426,-6.9467,-6.955,-6.9619,-6.9745,-6.9806,-6.9884,-6.9895,-6.993,-6.9907,-6.9895,-6.9898,-6.9895,-6.9902,-6.9933,-6.9934,-6.9934,-6.9934,0,-6.8815,-6.8876,-6.8972,-6.9067,-6.9092,-6.9147,-6.9227,-6.928,-6.9326,-6.9405,-6.9427,-6.95,-6.9579,-6.9635,-6.9736,-6.9763,-6.9853,-6.9861,-6.9829,-6.9834,-6.9871,-6.9868,-6.9981,-6.9999,-6.9924,-6.9925,-6.9926,0,-6.8787,-6.8856,-6.8943,-6.8995,-6.9074,-6.913,-6.9206,-6.9254,-6.932,-6.9382,-6.9417,-6.9475,-6.9537,-6.9603,-6.9642,-6.9725,-6.9743,-6.9769,-6.9779,-6.9767,-6.9764,-6.9794,-6.9791,-6.9796,-6.9795,-6.9795,-6.9794,0,-6.8723,-6.8848,-6.8934,-6.8973,-6.9079,-6.9118,-6.9163,-6.9237,-6.9285,-6.9356,-6.9388,-6.9466,-6.9509,-6.9568,-6.9618,-6.9601,-6.972,-6.9707,-6.9746,-6.9745,-6.977,-6.9768,-6.9854,-6.9793,-6.9793,-6.9793,-6.9793,0,-6.8709,-6.8782,-6.8896,-6.8987,-6.9017,-6.9072,-6.9154,-6.9215,-6.9289,-6.9318,-6.9374,-6.9403,-6.9479,-6.9463,-6.9568,-6.9532,-6.9572,-6.9603,-6.9607,-6.9618,-6.9598,-6.9641,-6.9716,-6.9726,-6.9628,-6.9626,-6.9625,0,-6.862,-6.8751,-6.88,-6.8907,-6.8975,-6.9012,-6.9074,-6.9139,-6.9183,-6.9247,-6.9294,-6.9365,-6.9364,-6.9394,-6.9439,-6.949,-6.9537,-6.9485,-6.9576,-6.9578,-6.9557,-6.9627,-6.9625,-6.9693,-6.9608,-6.961,-6.9611,0,-6.8558,-6.8687,-6.8703,-6.8749,-6.8844,-6.89,-6.8971,-6.9055,-6.9095,-6.9162,-6.9223,-6.9323,-6.9327,-6.9375,-6.9406,-6.945,-6.9507,-6.9448,-6.945,-6.9458,-6.9603,-6.9602,-6.9613,-6.9518,-6.952,-6.9522,-6.9598,0,-6.8528,-6.86,-6.8644,-6.8743,-6.8795,-6.8864,-6.8924,-6.8971,-6.8998,-6.9042,-6.9131,-6.9196,-6.9278,-6.9304,-6.9329,-6.9411,-6.9406,-6.9408,-6.9396,-6.944,-6.9467,-6.9478,-6.9352,-6.9352,-6.9352,-6.9352,0,0,-6.8429,-6.8533,-6.8584,-6.8655,-6.8702,-6.8738,-6.8807,-6.8856,-6.8954,-6.8986,-6.898,-6.9129,-6.9181,-6.9283,-6.9302,-6.9334,-6.9354,-6.9336,-6.9419,-6.9426,-6.9432,-6.946,-6.947,-6.9352,-6.9352,-6.9352,-6.9352,0,-6.843,-6.8486,-6.8553,-6.8607,-6.8689,-6.8733,-6.8749,-6.8836,-6.8867,-6.8954,-6.8981,-6.9041,-6.9157,-6.921,-6.9252,-6.9325,-6.9341,-6.9345,-6.9366,-6.9416,-6.9423,-6.943,-6.9458,-6.9467,-6.9352,-6.9352,-6.9352,0,-6.8382,-6.8447,-6.8485,-6.8594,-6.8647,-6.8715,-6.8718,-6.8788,-6.8839,-6.8871,-6.8957,-6.9001,-6.9075,-6.9163,-6.9204,-6.9199,-6.9326,-6.9295,-6.9297,-6.9303,-6.9354,-6.9362,-6.937,-6.927,-6.9269,-6.9269,0,0,-6.8375,-6.8442,-6.8528,-6.8598,-6.863,-6.8696,-6.8737,-6.8767,-6.8835,-6.8862,-6.8918,-6.8981,-6.905,-6.9093,-6.916,-6.9247,-6.9267,-6.9283,-6.9287,-6.929,-6.9297,-6.9349,-6.9357,-6.9267,-6.9267,-6.9267,0,0,-6.8371,-6.8474,-6.8489,-6.8579,-6.8643,-6.8732,-6.8772,-6.8792,-6.8858,-6.8857,-6.8909,-6.8928,-6.901,-6.9051,-6.9019,-6.9157,-6.9143,-6.9152,-6.9127,-6.9133,-6.9137,-6.9126,-6.9029,0,0,0,0,0,-6.8404,-6.8462,-6.8474,-6.8498,-6.8634,-6.8725,-6.8743,-6.8788,-6.8779,-6.8811,-6.8861,-6.8875,-6.9045,-6.9018,-6.904,-6.9075,-6.9242,-6.9246,-6.9251,-6.9239,-6.9245,-6.9249,0,0,0,0,0,0,-6.8413,-6.8443,-6.8473,-6.8563,-6.8594,-6.8723,-6.8718,-6.8732,-6.8777,-6.8779,-6.8865,-6.8877,-6.8917,-6.9009,-6.9029,-6.9061,-6.9023,-6.9244,-6.9248,-6.9251,-6.9241,-6.9245,-6.9249,0,0,0,0,0,-6.8421,-6.8445,-6.865,-6.8562,-6.8589,-6.8665,-6.8716,-6.8728,-6.8763,-6.884,-6.8854,-6.8794,-6.8916,-6.8936,-6.9021,-6.9052,-6.901,-6.9017,-6.9246,-6.9249,-6.9252,-6.9243,0,0,0,0,0,0,-6.8427,-6.8456,-6.8657,-6.8667,-6.8544,-6.8658,-6.8678,-6.8724,-6.8823,-6.8837,-6.8771,-6.8772,-6.8917,-6.8932,-6.8946,-6.9046,-6.8999,-6.9006,-6.9011,-6.9248,-6.9251,-6.9253,0,0,0,0,0,0,-6.8444,-6.8464,-6.8662,-6.8636,-6.8643,-6.8652,-6.867,-6.8747,-6.8823,-6.8748,-6.8752,-6.877,-6.8894,-6.8929,-6.8941,-6.9061,-6.8991,-6.8998,-6.9003,-6.9006,-6.925,-6.9252,0,0,0,0,0,0,-6.8453,-6.8471,-6.8633,-6.8639,-6.8645,-6.8759,-6.8722,-6.8857,-6.8803,-6.8743,-6.8799,-6.8797,-6.8891,-6.8904,-6.8937,-6.9052,-6.9058,-6.8991,-6.8996,-6.8999,-6.9001,0,0,0,0,0,0,0,-6.8461,-6.8332,-6.8599,-6.8642,-6.8647,-6.8758,-6.876,-6.8763,-6.8803,-6.8801,-6.88,-6.8798,-6.8952,-6.896,-6.8967,-6.9044,0,0,-6.8991,-6.8994,0,0,0,0,0,0,0,0,-6.8326,-6.8331,-6.8599,-6.8601,-6.8603,-6.8758,-6.876,-6.8762,-6.8802,-6.8801,-6.88,-6.8799,-6.8954,-6.896,-6.8966,0,0,0,0,0,0,0,0,0,0,0,0,0,0,0,-6.8599,-6.8601,0,-6.8758,-6.876,-6.8762,-6.8802,-6.8801,-6.88,-6.8799,-6.8956,-6.8961,-6.8966,0,0,0,0,0,0,0,0,0,0,0,0,0,0,0,0,0,0,0,0,0,0,0,0,0,0,0,0,0,0,0,0,0,0,0,0,0,0,0,0,0,0,0,0,0,0,0,0,0,0,0,0,0,0,0,0,0,0,0,0,0,0,0,0,0,0,0,0,0]}]]]